When you browse on this site, cookies collect data to enhance your experience and personalize the content and advertising you see.
Visit our Privacy Policy to learn more. By continuing to use the site, you agree to this use of cookies and data.
  • In Spain
  • List of Countries
  • For 7 days
  • Water Temperature
  • Weather Map
  • Weather Widgets
  • user-avatar
    Login

    Hourly Weather Lewis

    Today, 21 September, Saturday

    Time Temperature Precipitation Wind Pressure Humidity
    00:00 +13°C° 0 mm 3 mps 751 mmHg 78%
    01:00 +12°C° 0 mm 3 mps 751 mmHg 78%
    02:00 +13°C° 0 mm 2 mps 750 mmHg 78%
    03:00 +13°C° 0 mm 2 mps 750 mmHg 78%
    04:00 +13°C° 0 mm 2 mps 749 mmHg 78%
    05:00 +13°C° 0 mm 2 mps 749 mmHg 78%
    06:00 +13°C° 0 mm 2 mps 748 mmHg 78%
    07:00 +14°C° 0 mm 2 mps 748 mmHg 74%
    08:00 +14°C° 0 mm 3 mps 748 mmHg 70%
    09:00 +17°C° 0 mm 3 mps 747 mmHg 66%
    10:00 +18°C° 0 mm 3 mps 747 mmHg 60%
    11:00 +19°C° 0 mm 3 mps 747 mmHg 53%
    12:00 +20°C° 0 mm 3 mps 746 mmHg 47%
    13:00 +20°C° 0 mm 3 mps 746 mmHg 47%
    14:00 +20°C° 0 mm 3 mps 746 mmHg 48%
    15:00 +20°C° 0 mm 3 mps 745 mmHg 49%
    16:00 +19°C° 0 mm 3 mps 745 mmHg 53%
    17:00 +18°C° 0 mm 3 mps 744 mmHg 57%
    18:00 +17°C° 0 mm 3 mps 744 mmHg 62%
    19:00 +17°C° 0 mm 3 mps 744 mmHg 63%
    20:00 +16°C° 0 mm 3 mps 744 mmHg 65%
    21:00 +15°C° 0 mm 4 mps 744 mmHg 66%
    22:00 +16°C° 0 mm 3 mps 744 mmHg 67%
    23:00 +14°C° 0 mm 3 mps 744 mmHg 68%

    Tomorrow, 22 September, Sunday

    Time Temperature Precipitation Wind Pressure Humidity
    00:00 +15°C° 0 mm 2 mps 743 mmHg 70%
    01:00 +15°C° 0 mm 2 mps 743 mmHg 70%
    02:00 +15°C° 0 mm 2 mps 743 mmHg 71%
    03:00 +15°C° 0 mm 2 mps 742 mmHg 72%
    04:00 +15°C° 0 mm 2 mps 742 mmHg 72%
    05:00 +15°C° 0 mm 2 mps 742 mmHg 72%
    06:00 +15°C° 0 mm 2 mps 742 mmHg 73%
    07:00 +16°C° 0 mm 2 mps 742 mmHg 71%
    08:00 +18°C° 0 mm 1 mps 741 mmHg 70%
    09:00 +19°C° 0 mm 1 mps 741 mmHg 68%
    10:00 +19°C° 0 mm 1 mps 741 mmHg 67%
    11:00 +20°C° 0 mm 1 mps 741 mmHg 66%
    12:00 +20°C° 0 mm 1 mps 741 mmHg 65%
    13:00 +20°C° 0 mm 2 mps 741 mmHg 64%
    14:00 +20°C° 0 mm 2 mps 741 mmHg 63%
    15:00 +20°C° 0 mm 3 mps 741 mmHg 62%
    16:00 +19°C° 0 mm 3 mps 740 mmHg 67%
    17:00 +18°C° 0 mm 3 mps 740 mmHg 73%
    18:00 +17°C° 0 mm 4 mps 740 mmHg 78%
    19:00 +17°C° 0 mm 4 mps 740 mmHg 80%
    20:00 +17°C° 0 mm 4 mps 740 mmHg 81%
    21:00 +16°C° 0 mm 5 mps 740 mmHg 82%
    22:00 +15°C° 0 mm 5 mps 740 mmHg 85%
    23:00 +15°C° 0 mm 5 mps 740 mmHg 88%

    Day after tomorrow, 23 September, Monday

    Time Temperature Precipitation Wind Pressure Humidity
    00:00 +14°C° 0 mm 5 mps 740 mmHg 90%
    01:00 +14°C° 0.1 mm 4 mps 740 mmHg 90%
    02:00 +14°C° 0.1 mm 4 mps 740 mmHg 90%
    03:00 +14°C° 0.1 mm 4 mps 741 mmHg 90%
    04:00 +13°C° 0.3 mm 3 mps 740 mmHg 91%
    05:00 +14°C° 0.3 mm 2 mps 740 mmHg 92%
    06:00 +14°C° 0.3 mm 2 mps 740 mmHg 93%
    07:00 +14°C° 0.2 mm 2 mps 740 mmHg 92%
    08:00 +15°C° 0.2 mm 2 mps 740 mmHg 91%
    09:00 +15°C° 0.2 mm 2 mps 740 mmHg 89%
    10:00 +16°C° 0.2 mm 2 mps 740 mmHg 86%
    11:00 +16°C° 0.2 mm 3 mps 740 mmHg 82%
    12:00 +17°C° 0.2 mm 3 mps 740 mmHg 79%
    13:00 +17°C° 0.3 mm 3 mps 740 mmHg 78%
    14:00 +16°C° 0.3 mm 3 mps 740 mmHg 77%
    15:00 +16°C° 0.3 mm 3 mps 740 mmHg 76%
    16:00 +16°C° 0 mm 3 mps 740 mmHg 78%
    17:00 +15°C° 0 mm 2 mps 740 mmHg 80%
    18:00 +15°C° 0 mm 2 mps 740 mmHg 81%
    19:00 +13°C° 0 mm 3 mps 740 mmHg 84%
    20:00 +13°C° 0 mm 3 mps 740 mmHg 86%
    21:00 +12°C° 0 mm 4 mps 739 mmHg 88%
    22:00 +12°C° 0 mm 5 mps 739 mmHg 85%
    23:00 +13°C° 0 mm 5 mps 739 mmHg 82%

    24 September, Tuesday

    Time Temperature Precipitation Wind Pressure Humidity
    00:00 +13°C° 0 mm 6 mps 738 mmHg 79%
    01:00 +13°C° 0.1 mm 6 mps 738 mmHg 80%
    02:00 +11°C° 0.1 mm 6 mps 737 mmHg 82%
    03:00 +11°C° 0.1 mm 6 mps 737 mmHg 83%
    04:00 +11°C° 0.2 mm 6 mps 737 mmHg 84%
    05:00 +12°C° 0.2 mm 5 mps 737 mmHg 86%
    06:00 +12°C° 0.2 mm 5 mps 737 mmHg 87%
    07:00 +12°C° 0.1 mm 4 mps 737 mmHg 87%
    08:00 +13°C° 0.1 mm 4 mps 737 mmHg 86%
    09:00 +13°C° 0.1 mm 3 mps 737 mmHg 86%
    10:00 +14°C° 0 mm 3 mps 737 mmHg 83%
    11:00 +16°C° 0 mm 3 mps 737 mmHg 80%
    12:00 +17°C° 0 mm 3 mps 737 mmHg 77%
    13:00 +17°C° 0 mm 3 mps 737 mmHg 76%
    14:00 +18°C° 0 mm 3 mps 736 mmHg 75%
    15:00 +18°C° 0 mm 4 mps 736 mmHg 74%
    16:00 +17°C° 0 mm 4 mps 736 mmHg 78%
    17:00 +15°C° 0 mm 4 mps 735 mmHg 82%
    18:00 +14°C° 0 mm 4 mps 735 mmHg 87%
    19:00 +14°C° 0 mm 5 mps 735 mmHg 88%
    20:00 +13°C° 0 mm 5 mps 734 mmHg 90%
    21:00 +13°C° 0 mm 5 mps 734 mmHg 92%
    22:00 +13°C° 0.3 mm 6 mps 734 mmHg 93%
    23:00 +13°C° 0.3 mm 6 mps 734 mmHg 94%

    25 September, Wednesday

    Time Temperature Precipitation Wind Pressure Humidity
    00:00 +12°C° 0.3 mm 7 mps 733 mmHg 95%
    01:00 +13°C° 0.2 mm 6 mps 733 mmHg 94%
    02:00 +12°C° 0.2 mm 4 mps 733 mmHg 92%
    03:00 +11°C° 0.2 mm 3 mps 733 mmHg 91%
    04:00 +11°C° 0 mm 3 mps 733 mmHg 92%
    05:00 +11°C° 0 mm 4 mps 734 mmHg 93%
    06:00 +10°C° 0 mm 4 mps 734 mmHg 94%
    07:00 +11°C° 0 mm 4 mps 734 mmHg 91%
    08:00 +12°C° 0 mm 4 mps 734 mmHg 88%
    09:00 +13°C° 0 mm 5 mps 735 mmHg 85%
    10:00 +14°C° 0 mm 4 mps 735 mmHg 83%
    11:00 +14°C° 0 mm 4 mps 735 mmHg 80%
    12:00 +15°C° 0 mm 4 mps 735 mmHg 78%
    13:00 +15°C° 0 mm 4 mps 735 mmHg 78%
    14:00 +15°C° 0 mm 4 mps 735 mmHg 77%
    15:00 +15°C° 0 mm 4 mps 735 mmHg 77%
    16:00 +14°C° 0 mm 3 mps 735 mmHg 81%
    17:00 +13°C° 0 mm 3 mps 735 mmHg 85%
    18:00 +13°C° 0 mm 3 mps 735 mmHg 88%
    19:00 +12°C° 0 mm 3 mps 735 mmHg 89%
    20:00 +12°C° 0 mm 3 mps 735 mmHg 90%
    21:00 +12°C° 0 mm 3 mps 736 mmHg 91%
    22:00 +11°C° 0 mm 4 mps 735 mmHg 92%
    23:00 +11°C° 0 mm 4 mps 735 mmHg 93%

    26 September, Thursday

    Time Temperature Precipitation Wind Pressure Humidity
    00:00 +10°C° 0 mm 5 mps 735 mmHg 94%
    01:00 +10°C° 0 mm 5 mps 734 mmHg 94%
    02:00 +10°C° 0 mm 5 mps 734 mmHg 93%
    03:00 +10°C° 0 mm 5 mps 734 mmHg 93%
    04:00 +10°C° 0 mm 5 mps 733 mmHg 94%
    05:00 +9°C° 0 mm 5 mps 733 mmHg 94%
    06:00 +10°C° 0 mm 4 mps 733 mmHg 95%
    07:00 +10°C° 0 mm 5 mps 733 mmHg 92%
    08:00 +12°C° 0 mm 5 mps 732 mmHg 88%
    09:00 +13°C° 0 mm 5 mps 732 mmHg 85%
    10:00 +13°C° 0 mm 6 mps 732 mmHg 83%
    11:00 +12°C° 0 mm 7 mps 732 mmHg 81%
    12:00 +13°C° 0 mm 8 mps 732 mmHg 78%
    13:00 +13°C° 0 mm 9 mps 732 mmHg 77%
    14:00 +13°C° 0 mm 9 mps 732 mmHg 75%
    15:00 +13°C° 0 mm 10 mps 732 mmHg 74%
    16:00 +13°C° 0 mm 10 mps 732 mmHg 76%
    17:00 +12°C° 0 mm 11 mps 731 mmHg 78%
    18:00 +12°C° 0 mm 11 mps 731 mmHg 80%
    19:00 +12°C° 0 mm 11 mps 732 mmHg 83%
    20:00 +11°C° 0 mm 11 mps 732 mmHg 85%
    21:00 +11°C° 0 mm 11 mps 732 mmHg 87%
    22:00 +11°C° 0.1 mm 10 mps 732 mmHg 88%
    23:00 +11°C° 0.1 mm 9 mps 732 mmHg 89%
    Show more